• In Hungary
  • List of Countries
  • For 7 days
  • Water Temperature
  • Satellite Maps
  • Weather Map
  • News
  • Weather Widgets
  • user-avatar
    Login

    Hourly Weather Durres

    Today, 19 August, Saturday

    Time Temperature Precipitation Wind Pressure Humidity
    00:00 +27°C° 0 mm 2 mps 760 mmHg 37%
    01:00 +26°C° 0 mm 1 mps 760 mmHg 36%
    02:00 +26°C° 0 mm 1 mps 760 mmHg 36%
    03:00 +26°C° 0 mm 1 mps 760 mmHg 36%
    04:00 +25°C° 0 mm 1 mps 760 mmHg 36%
    05:00 +27°C° 0 mm 1 mps 760 mmHg 35%
    06:00 +29°C° 0 mm 1 mps 760 mmHg 33%
    07:00 +30°C° 0 mm 1 mps 760 mmHg 31%
    08:00 +32°C° 0 mm 2 mps 760 mmHg 28%
    09:00 +35°C° 0 mm 2 mps 760 mmHg 25%
    10:00 +37°C° 0 mm 2 mps 760 mmHg 21%
    11:00 +38°C° 0 mm 2 mps 760 mmHg 21%
    12:00 +39°C° 0 mm 3 mps 759 mmHg 20%
    13:00 +40°C° 0 mm 4 mps 759 mmHg 19%
    14:00 +38°C° 0 mm 3 mps 759 mmHg 22%
    15:00 +38°C° 0 mm 3 mps 759 mmHg 24%
    16:00 +37°C° 0 mm 3 mps 759 mmHg 26%
    17:00 +34°C° 0 mm 2 mps 759 mmHg 33%
    18:00 +31°C° 0 mm 2 mps 759 mmHg 39%
    19:00 +28°C° 0 mm 1 mps 759 mmHg 46%
    20:00 +28°C° 0 mm 1 mps 759 mmHg 46%
    21:00 +27°C° 0 mm 1 mps 759 mmHg 45%
    22:00 +27°C° 0 mm 2 mps 760 mmHg 45%
    23:00 +26°C° 0 mm 2 mps 759 mmHg 46%

    Tomorrow, 20 August, Sunday

    Time Temperature Precipitation Wind Pressure Humidity
    00:00 +26°C° 0 mm 2 mps 759 mmHg 46%
    01:00 +26°C° 0 mm 2 mps 759 mmHg 46%
    02:00 +25°C° 0 mm 2 mps 759 mmHg 46%
    03:00 +25°C° 0 mm 2 mps 759 mmHg 46%
    04:00 +25°C° 0 mm 3 mps 758 mmHg 46%
    05:00 +27°C° 0 mm 3 mps 758 mmHg 42%
    06:00 +28°C° 0 mm 2 mps 758 mmHg 38%
    07:00 +30°C° 0 mm 2 mps 758 mmHg 35%
    08:00 +32°C° 0 mm 2 mps 758 mmHg 30%
    09:00 +35°C° 0 mm 2 mps 758 mmHg 25%
    10:00 +37°C° 0 mm 2 mps 758 mmHg 21%
    11:00 +38°C° 0 mm 3 mps 757 mmHg 20%
    12:00 +38°C° 0 mm 3 mps 757 mmHg 20%
    13:00 +39°C° 0 mm 3 mps 757 mmHg 19%
    14:00 +38°C° 0 mm 3 mps 756 mmHg 22%
    15:00 +37°C° 0 mm 3 mps 756 mmHg 24%
    16:00 +37°C° 0 mm 3 mps 756 mmHg 26%
    17:00 +34°C° 0.1 mm 2 mps 756 mmHg 33%
    18:00 +30°C° 0.1 mm 1 mps 757 mmHg 39%
    19:00 +28°C° 0.1 mm 1 mps 757 mmHg 46%
    20:00 +27°C° 0.2 mm 1 mps 757 mmHg 46%
    21:00 +27°C° 0.2 mm 1 mps 758 mmHg 47%
    22:00 +26°C° 0.2 mm 1 mps 758 mmHg 47%
    23:00 +26°C° 0.4 mm 1 mps 758 mmHg 49%

    Day after tomorrow, 21 August, Monday

    Time Temperature Precipitation Wind Pressure Humidity
    00:00 +25°C° 0.4 mm 1 mps 758 mmHg 51%
    01:00 +25°C° 0.4 mm 1 mps 758 mmHg 53%
    02:00 +25°C° 0.5 mm 2 mps 757 mmHg 55%
    03:00 +24°C° 0.5 mm 2 mps 757 mmHg 57%
    04:00 +24°C° 0.5 mm 2 mps 757 mmHg 60%
    05:00 +25°C° 0.2 mm 2 mps 757 mmHg 56%
    06:00 +26°C° 0.2 mm 2 mps 758 mmHg 53%
    07:00 +28°C° 0.2 mm 2 mps 758 mmHg 50%
    08:00 +30°C° 0 mm 3 mps 758 mmHg 44%
    09:00 +33°C° 0 mm 3 mps 758 mmHg 39%
    10:00 +35°C° 0 mm 3 mps 758 mmHg 34%
    11:00 +35°C° 0 mm 4 mps 758 mmHg 33%
    12:00 +36°C° 0 mm 5 mps 757 mmHg 32%
    13:00 +36°C° 0 mm 6 mps 757 mmHg 32%
    14:00 +36°C° 0 mm 6 mps 757 mmHg 32%
    15:00 +35°C° 0 mm 7 mps 757 mmHg 33%
    16:00 +35°C° 0 mm 8 mps 757 mmHg 34%
    17:00 +33°C° 0 mm 7 mps 757 mmHg 40%
    18:00 +29°C° 0 mm 7 mps 757 mmHg 46%
    19:00 +27°C° 0 mm 7 mps 758 mmHg 53%
    20:00 +26°C° 0 mm 6 mps 758 mmHg 56%
    21:00 +24°C° 0 mm 6 mps 758 mmHg 60%
    22:00 +23°C° 0 mm 5 mps 759 mmHg 64%
    23:00 +23°C° 0 mm 5 mps 759 mmHg 63%

    22 August, Tuesday

    Time Temperature Precipitation Wind Pressure Humidity
    00:00 +23°C° 0 mm 5 mps 759 mmHg 63%
    01:00 +22°C° 0 mm 5 mps 759 mmHg 62%
    02:00 +22°C° 0 mm 5 mps 759 mmHg 61%
    03:00 +21°C° 0 mm 5 mps 759 mmHg 60%
    04:00 +21°C° 0 mm 5 mps 759 mmHg 59%
    05:00 +22°C° 0 mm 5 mps 759 mmHg 54%
    06:00 +24°C° 0 mm 6 mps 759 mmHg 48%
    07:00 +26°C° 0 mm 6 mps 760 mmHg 42%
    08:00 +28°C° 0 mm 6 mps 760 mmHg 37%
    09:00 +30°C° 0 mm 6 mps 760 mmHg 32%
    10:00 +32°C° 0 mm 5 mps 760 mmHg 27%
    11:00 +33°C° 0 mm 6 mps 760 mmHg 24%
    12:00 +35°C° 0 mm 6 mps 759 mmHg 22%
    13:00 +36°C° 0 mm 6 mps 759 mmHg 19%
    14:00 +35°C° 0 mm 7 mps 759 mmHg 19%
    15:00 +35°C° 0 mm 8 mps 759 mmHg 19%
    16:00 +34°C° 0 mm 9 mps 759 mmHg 20%
    17:00 +31°C° 0 mm 8 mps 759 mmHg 27%
    18:00 +27°C° 0 mm 8 mps 759 mmHg 34%
    19:00 +24°C° 0 mm 7 mps 759 mmHg 41%
    20:00 +23°C° 0 mm 7 mps 760 mmHg 41%
    21:00 +22°C° 0 mm 6 mps 760 mmHg 40%
    22:00 +22°C° 0 mm 5 mps 760 mmHg 39%
    23:00 +21°C° 0 mm 5 mps 760 mmHg 38%

    23 August, Wednesday

    Time Temperature Precipitation Wind Pressure Humidity
    00:00 +21°C° 0 mm 4 mps 760 mmHg 37%
    01:00 +20°C° 0 mm 4 mps 760 mmHg 37%
    02:00 +20°C° 0 mm 4 mps 760 mmHg 38%
    03:00 +20°C° 0 mm 4 mps 760 mmHg 40%
    04:00 +19°C° 0 mm 4 mps 760 mmHg 41%
    05:00 +21°C° 0 mm 4 mps 760 mmHg 39%
    06:00 +23°C° 0 mm 4 mps 760 mmHg 37%
    07:00 +25°C° 0 mm 4 mps 761 mmHg 35%
    08:00 +28°C° 0 mm 3 mps 761 mmHg 30%
    09:00 +31°C° 0 mm 3 mps 761 mmHg 25%
    10:00 +34°C° 0 mm 3 mps 761 mmHg 20%
    11:00 +35°C° 0 mm 4 mps 760 mmHg 18%
    12:00 +35°C° 0 mm 5 mps 760 mmHg 17%
    13:00 +36°C° 0 mm 6 mps 760 mmHg 15%
    14:00 +35°C° 0 mm 6 mps 760 mmHg 17%
    15:00 +35°C° 0 mm 6 mps 760 mmHg 18%
    16:00 +34°C° 0 mm 6 mps 760 mmHg 20%
    17:00 +30°C° 0 mm 5 mps 760 mmHg 29%
    18:00 +27°C° 0 mm 4 mps 760 mmHg 37%
    19:00 +24°C° 0 mm 3 mps 760 mmHg 46%
    20:00 +22°C° 0 mm 3 mps 760 mmHg 45%
    21:00 +23°C° 0 mm 2 mps 760 mmHg 44%
    22:00 +23°C° 0 mm 2 mps 761 mmHg 42%
    23:00 +23°C° 0 mm 2 mps 761 mmHg 40%

    24 August, Thursday

    Time Temperature Precipitation Wind Pressure Humidity
    00:00 +22°C° 0 mm 1 mps 761 mmHg 38%
    01:00 +22°C° 0 mm 1 mps 760 mmHg 36%
    02:00 +22°C° 0 mm 1 mps 761 mmHg 36%
    03:00 +21°C° 0 mm 2 mps 761 mmHg 36%
    04:00 +20°C° 0 mm 2 mps 761 mmHg 35%
    05:00 +23°C° 0 mm 2 mps 761 mmHg 33%
    06:00 +25°C° 0 mm 2 mps 761 mmHg 30%
    07:00 +27°C° 0 mm 2 mps 761 mmHg 27%
    08:00 +29°C° 0 mm 2 mps 761 mmHg 24%
    09:00 +32°C° 0 mm 2 mps 761 mmHg 21%
    10:00 +36°C° 0 mm 2 mps 761 mmHg 18%
    11:00 +36°C° 0 mm 3 mps 761 mmHg 17%
    12:00 +37°C° 0 mm 4 mps 761 mmHg 17%
    13:00 +37°C° 0 mm 5 mps 761 mmHg 16%
    14:00 +37°C° 0 mm 5 mps 760 mmHg 18%
    15:00 +36°C° 0 mm 5 mps 760 mmHg 19%
    16:00 +35°C° 0 mm 6 mps 760 mmHg 21%
    17:00 +32°C° 0 mm 5 mps 760 mmHg 29%
    18:00 +28°C° 0 mm 4 mps 761 mmHg 38%
    19:00 +25°C° 0 mm 3 mps 761 mmHg 47%
    20:00 +25°C° 0 mm 3 mps 761 mmHg 44%
    21:00 +25°C° 0 mm 2 mps 762 mmHg 42%
    22:00 +25°C° 0 mm 2 mps 762 mmHg 39%
    23:00 +25°C° 0 mm 2 mps 762 mmHg 38%
    Show more